FW4606 Weather Reports


time (UTC)temp
F
wind
direction
speed
knots
gust
knots
rain 1hr
in
rain 24hr
in
rain mn
in
humidity
%
barometer
mb
20260902003057 77 143 0.0 0.0 0.00 0.00 0.00 61 1013.0
20260902002555 78 143 0.0 0.0 0.00 0.00 0.00 60 1012.9
20260902002054 78 144 0.0 0.0 0.00 0.00 0.00 60 1013.0
20260902001555 78 143 0.0 0.0 0.00 0.00 0.00 58 1013.0
20260902001055 79 144 0.0 0.0 0.00 0.00 0.00 56 1013.1
20260902000553 80 143 0.0 0.0 0.00 0.00 0.00 56 1013.2
20260902000055 80 143 0.0 0.0 0.00 0.00 0.00 55 1013.0
20260901235551 81 143 0.0 0.0 0.00 0.00 0.00 54 1012.9
20260901235051 82 143 0.0 0.0 0.00 0.00 0.00 52 1013.1
20260901234550 82 143 0.0 0.0 0.00 0.00 0.00 52 1013.2
20260901234047 83 143 0.0 0.9 0.00 0.00 0.00 52 1013.2
20260901233551 83 143 0.0 0.9 0.00 0.00 0.00 51 1013.2
20260901233320 84 134 0.0 1.7 0.00 0.00 0.00 48 1013.1
20260901232549 84 140 0.0 1.7 0.00 0.00 0.00 48 1013.0
20260901232046 84 149 0.0 0.9 0.00 0.00 0.00 48 1013.0
20260901231545 85 158 0.0 1.7 0.00 0.00 0.00 46 1013.0
20260901231043 85 159 0.0 2.6 0.00 0.00 0.00 47 1013.1
20260901230545 85 146 0.0 2.6 0.00 0.00 0.00 48 1013.0
20260901230043 85 125 0.9 2.6 0.00 0.00 0.00 46 1013.1
20260901225540 85 148 0.9 2.6 0.00 0.00 0.00 45 1013.2
20260901225306 85 132 0.9 1.7 0.00 0.00 0.00 45 1013.2
20260901224538 85 132 0.0 1.7 0.00 0.00 0.00 50 1013.2
20260901224029 84 157 0.0 0.9 0.00 0.00 0.00 50 1013.1
20260901223528 84 136 0.0 0.9 0.00 0.00 0.00 48 1013.1
20260901223027 84 143 0.0 1.7 0.00 0.00 0.00 47 1013.0
20260901222527 84 140 0.9 1.7 0.00 0.00 0.00 45 1013.1
20260901222026 85 154 0.0 1.7 0.00 0.00 0.00 43 1013.0
20260901221525 85 228 0.9 4.3 0.00 0.00 0.00 42 1013.0
20260901221021 85 226 0.9 4.3 0.00 0.00 0.00 41 1013.0
20260901220522 85 218 0.9 3.5 0.00 0.00 0.00 43 1013.1
20260901220020 85 238 0.9 2.6 0.00 0.00 0.00 42 1013.0
20260901215521 85 169 0.9 2.6 0.00 0.00 0.00 44 1013.0
20260901215019 86 214 0.0 1.7 0.00 0.00 0.00 42 1013.0
20260901214518 86 190 0.9 2.6 0.00 0.00 0.00 41 1012.9
20260901214248 86 149 1.7 2.6 0.00 0.00 0.00 41 1012.9
20260901213748 86 156 0.9 2.6 0.00 0.00 0.00 40 1012.8
20260901213016 87 167 0.9 2.6 0.00 0.00 0.00 40 1012.7
20260901212515 87 222 0.9 1.7 0.00 0.00 0.00 38 1012.7
20260901212019 87 170 0.9 1.7 0.00 0.00 0.00 39 1012.8
20260901211512 87 154 0.9 1.7 0.00 0.00 0.00 40 1012.7
20260901211005 87 146 0.0 1.7 0.00 0.00 0.00 38 1012.6
20260901210457 87 133 0.0 2.6 0.00 0.00 0.00 38 1012.7
20260901205957 88 214 0.9 2.6 0.00 0.00 0.00 36 1012.8
20260901205456 88 208 0.9 2.6 0.00 0.00 0.00 36 1012.8
20260901205225 89 136 0.9 2.6 0.00 0.00 0.00 35 1012.8
20260901204452 89 159 0.9 4.3 0.00 0.00 0.00 34 1013.0
20260901203950 89 134 1.7 4.3 0.00 0.00 0.00 34 1013.1
20260901203448 90 112 1.7 3.5 0.00 0.00 0.00 33 1013.1
20260901203220 90 273 0.9 3.5 0.00 0.00 0.00 33 1013.1
20260901202721 91 217 0.9 3.5 0.00 0.00 0.00 32 1013.1
20260901202619 91 148 0.9 3.5 0.00 0.00 0.00 32 1013.2
20260901201449 91 159 0.9 3.5 0.00 0.00 0.00 33 1013.2
20260901200945 91 174 0.9 4.3 0.00 0.00 0.00 35 1013.2
20260901200447 91 201 0.9 4.3 0.00 0.00 0.00 32 1013.2
20260901195946 90 120 0.9 4.3 0.00 0.00 0.00 35 1013.2
20260901195446 89 107 1.7 3.5 0.00 0.00 0.00 34 1013.4
20260901194950 89 212 0.9 2.6 0.00 0.00 0.00 37 1013.5
20260901194946 89 196 0.9 3.5 0.00 0.00 0.00 35 1013.4
20260901194219 89 201 0.9 3.5 0.00 0.00 0.00 38 1013.5
20260901193446 89 159 0.9 3.5 0.00 0.00 0.00 38 1013.6
20260901192940 89 221 0.9 3.5 0.00 0.00 0.00 38 1013.5
20260901192434 90 176 0.9 4.3 0.00 0.00 0.00 37 1013.5
20260901191928 90 257 0.9 4.3 0.00 0.00 0.00 38 1013.5
20260901191421 89 212 0.0 2.6 0.00 0.00 0.00 41 1013.5
20260901190923 88 42 0.0 0.9 0.00 0.00 0.00 41 1013.6
20260901190422 88 102 0.0 0.9 0.00 0.00 0.00 44 1013.7
20260901185924 87 45 0.0 0.9 0.00 0.00 0.00 39 1013.7
20260901185424 87 54 0.0 1.7 0.00 0.00 0.00 41 1013.8
20260901184923 87 194 0.0 1.7 0.00 0.00 0.00 42 1013.8
20260901184421 87 156 0.0 1.7 0.00 0.00 0.00 45 1013.7
20260901183918 87 162 0.0 1.7 0.00 0.00 0.00 43 1013.8
20260901183417 87 141 0.0 2.6 0.00 0.00 0.00 44 1013.9
20260901182917 86 136 0.0 2.6 0.00 0.00 0.00 40 1014.0
20260901182418 87 169 0.0 1.7 0.00 0.00 0.00 43 1014.0
20260901181916 87 175 0.9 3.5 0.00 0.00 0.00 40 1014.1
20260901181645 87 166 0.9 3.5 0.00 0.00 0.00 40 1014.2
20260901180913 88 193 0.9 3.5 0.00 0.00 0.00 40 1014.2
20260901180412 87 215 0.9 3.5 0.00 0.00 0.00 40 1014.3
20260901180144 87 113 0.9 3.5 0.00 0.00 0.00 44 1014.3
20260901175411 87 162 0.9 3.5 0.00 0.00 0.00 41 1014.3
20260901175142 87 256 0.9 3.5 0.00 0.00 0.00 45 1014.5
20260901174406 86 115 0.9 2.6 0.00 0.00 0.00 43 1014.6
20260901173859 86 131 0.0 2.6 0.00 0.00 0.00 44 1014.7
20260901173354 86 351 0.0 0.9 0.00 0.00 0.00 46 1014.6
20260901172847 85 24 0.0 1.7 0.00 0.00 0.00 50 1014.6
20260901172342 85 136 0.0 1.7 0.00 0.00 0.00 48 1014.6
20260901171836 85 146 0.9 2.6 0.00 0.00 0.00 47 1014.7
20260901171603 85 149 0.9 2.6 0.00 0.00 0.00 46 1014.7
20260901171326 85 138 0.0 0.9 0.00 0.00 0.00 50 1014.8
20260901170318 84 115 0.0 0.9 0.00 0.00 0.00 47 1014.8
20260901165808 84 115 0.0 0.9 0.00 0.00 0.00 56 1014.7
20260901165306 84 77 0.0 0.9 0.00 0.00 0.00 57 1014.7
20260901164756 83 205 0.0 0.9 0.00 0.00 0.00 53 1014.7
20260901164522 83 129 0.0 0.9 0.00 0.00 0.00 58 1014.7
20260901163744 82 96 0.0 0.9 0.00 0.00 0.00 57 1014.6
20260901163238 82 8 0.0 0.9 0.00 0.00 0.00 57 1014.7
20260901162732 81 179 0.0 0.9 0.00 0.00 0.00 59 1014.6
20260901162226 81 49 0.0 0.9 0.00 0.00 0.00 61 1014.6
20260901161720 80 44 0.0 0.9 0.00 0.00 0.00 62 1014.6
20260901161214 80 129 0.0 0.9 0.00 0.00 0.00 63 1014.8
20260901160708 80 134 0.0 0.9 0.00 0.00 0.00 63 1014.8
20260901160432 80 103 0.0 1.7 0.00 0.00 0.00 64 1014.8
20260901155656 79 130 0.0 1.7 0.00 0.00 0.00 69 1014.8
20260901155150 79 201 0.0 0.9 0.00 0.00 0.00 69 1014.9
20260901154644 79 128 0.0 1.7 0.00 0.00 0.00 69 1014.8
20260901154138 78 130 0.0 1.7 0.00 0.00 0.00 70 1014.8
20260901153634 78 113 0.0 0.9 0.00 0.00 0.00 69 1014.8
20260901153629 78 96 0.0 0.9 0.00 0.00 0.00 71 1014.9
20260901152620 78 93 0.0 0.9 0.00 0.00 0.00 70 1014.9
20260901152114 78 72 0.0 0.9 0.00 0.00 0.00 69 1014.9
20260901151607 77 145 0.0 0.9 0.00 0.00 0.00 69 1014.8
20260901151102 77 125 0.0 0.9 0.00 0.00 0.00 72 1014.9
20260901150556 76 47 0.0 0.9 0.00 0.00 0.00 72 1014.9
20260901150050 76 104 0.0 0.9 0.00 0.00 0.00 73 1015.0
20260901145814 75 133 0.0 0.9 0.00 0.00 0.00 78 1015.0
20260901145038 74 136 0.0 1.7 0.00 0.00 0.00 78 1014.9
20260901144532 74 135 0.0 1.7 0.00 0.00 0.00 77 1014.9
20260901144026 73 111 0.0 1.7 0.00 0.00 0.00 78 1014.9
20260901143521 73 240 0.0 2.6 0.00 0.00 0.00 81 1015.0
20260901143516 72 140 0.0 2.6 0.00 0.00 0.00 83 1014.9
20260901142509 71 108 0.0 2.6 0.00 0.00 0.00 86 1014.9
20260901142001 70 149 0.0 1.7 0.00 0.00 0.00 88 1014.9
20260901141456 70 158 0.0 0.9 0.00 0.00 0.00 89 1014.9
20260901141218 69 97 0.0 1.7 0.00 0.00 0.00 90 1014.9
20260901141053 69 174 0.0 1.7 0.00 0.00 0.00 90 1014.9
20260901135938 68 107 0.0 1.7 0.00 0.00 0.00 92 1014.9
20260901135704 68 146 0.0 1.7 0.00 0.00 0.00 93 1015.0
20260901134926 67 169 0.0 1.7 0.00 0.00 0.00 94 1015.0
20260901134420 67 191 0.0 1.7 0.00 0.00 0.00 96 1015.1
20260901133914 66 132 0.0 1.7 0.00 0.00 0.00 97 1015.1
20260901133408 66 122 0.0 1.7 0.00 0.00 0.00 98 1015.0
20260901132902 65 134 0.0 1.7 0.00 0.00 0.00 98 1014.9
20260901132626 65 150 0.0 0.9 0.00 0.00 0.00 98 1014.9
20260901131849 64 121 0.0 0.0 0.00 0.00 0.00 98 1014.8
20260901131344 64 121 0.0 0.9 0.00 0.00 0.00 98 1014.7
20260901130838 63 122 0.0 0.9 0.00 0.00 0.00 98 1014.7
20260901130332 63 121 0.0 0.0 0.00 0.00 0.00 98 1014.7
20260901125826 63 121 0.0 0.0 0.00 0.00 0.00 97 1014.7
20260901125320 62 122 0.0 0.0 0.00 0.00 0.00 97 1014.6
20260901125048 62 121 0.0 0.0 0.00 0.00 0.00 97 1014.6
20260901124813 62 121 0.0 0.0 0.00 0.00 0.00 97 1014.6
20260901123802 61 121 0.0 0.0 0.00 0.00 0.00 97 1014.5
20260901123256 61 121 0.0 0.0 0.00 0.00 0.00 97 1014.5
20260901122750 60 121 0.0 0.0 0.00 0.00 0.00 97 1014.5
20260901122244 60 121 0.0 0.0 0.00 0.00 0.00 97 1014.5
20260901121738 60 122 0.0 0.0 0.00 0.00 0.00 97 1014.5
20260901121502 60 122 0.0 0.0 0.00 0.00 0.00 97 1014.5
20260901120726 61 121 0.0 0.0 0.00 0.00 0.00 97 1014.5
20260901120451 61 121 0.0 0.0 0.00 0.00 0.00 97 1014.4
20260901115714 61 121 0.0 0.0 0.00 0.00 0.00 97 1014.4
20260901115207 60 122 0.0 0.0 0.00 0.00 0.00 97 1014.2
20260901114701 60 121 0.0 0.0 0.00 0.00 0.00 97 1014.2
20260901114156 60 122 0.0 0.0 0.00 0.00 0.00 97 1014.1
20260901113650 60 122 0.0 0.0 0.00 0.00 0.00 97 1014.1
20260901113144 60 122 0.0 0.0 0.00 0.00 0.00 97 1014.1
20260901112910 60 121 0.0 0.0 0.00 0.00 0.00 97 1014.0
20260901112404 60 122 0.0 0.0 0.00 0.00 0.00 97 1014.0
20260901111626 58 121 0.0 0.0 0.00 0.00 0.00 97 1014.0
20260901111120 58 121 0.0 0.0 0.00 0.00 0.00 96 1014.0
20260901110846 58 121 0.0 0.0 0.00 0.00 0.00 96 1013.9
20260901110339 58 122 0.0 0.0 0.00 0.00 0.00 96 1013.9
20260901105602 58 121 0.0 0.0 0.00 0.00 0.00 96 1013.9
20260901105327 58 121 0.0 0.0 0.00 0.00 0.00 95 1014.0
20260901104822 58 121 0.0 0.0 0.00 0.00 0.00 96 1014.0
20260901104044 59 122 0.0 0.0 0.00 0.00 0.00 96 1013.9
20260901103538 59 122 0.0 0.0 0.00 0.00 0.00 96 1013.8
20260901103032 59 122 0.0 0.0 0.00 0.00 0.00 96 1013.8
20260901102525 60 122 0.0 0.0 0.00 0.00 0.00 96 1013.8
20260901102020 60 121 0.0 0.0 0.00 0.00 0.00 96 1013.8
20260901101514 60 121 0.0 0.0 0.00 0.00 0.00 97 1013.7
20260901101008 58 122 0.0 0.9 0.00 0.00 0.00 95 1013.6
20260901100502 59 121 0.0 0.9 0.00 0.00 0.00 95 1013.5
20260901095956 59 121 0.0 0.0 0.00 0.00 0.00 95 1013.5
20260901095451 60 122 0.0 0.0 0.00 0.00 0.00 95 1013.5
20260901095215 60 122 0.0 0.0 0.00 0.00 0.00 95 1013.4
20260901094437 61 122 0.0 0.0 0.00 0.00 0.00 97 1013.2
20260901093931 62 122 0.0 0.0 0.00 0.00 0.00 97 1013.1
20260901093426 61 121 0.0 0.0 0.00 0.00 0.00 96 1013.1
20260901092920 60 121 0.0 0.0 0.00 0.00 0.00 96 1013.0
20260901092414 60 122 0.0 0.0 0.00 0.00 0.00 95 1013.1
20260901091907 61 121 0.0 0.0 0.00 0.00 0.00 96 1013.1
20260901090856 62 121 0.0 0.0 0.00 0.00 0.00 96 1013.1
20260901090350 63 121 0.0 0.0 0.00 0.00 0.00 97 1013.2
20260901085844 62 122 0.0 0.0 0.00 0.00 0.00 97 1013.1
20260901085338 62 121 0.0 0.0 0.00 0.00 0.00 97 1013.1
20260901084832 62 121 0.0 0.0 0.00 0.00 0.00 97 1013.2
20260901084326 61 121 0.0 0.0 0.00 0.00 0.00 97 1013.2
20260901083820 61 121 0.0 0.0 0.00 0.00 0.00 96 1013.2
20260901083314 60 121 0.0 0.0 0.00 0.00 0.00 95 1013.1
20260901083039 60 122 0.0 0.0 0.00 0.00 0.00 95 1013.1
20260901082534 61 121 0.0 0.0 0.00 0.00 0.00 95 1013.1
20260901082028 62 122 0.0 0.0 0.00 0.00 0.00 96 1013.1
20260901081520 62 121 0.0 0.0 0.00 0.00 0.00 96 1013.1
20260901080744 62 122 0.0 0.0 0.00 0.00 0.00 96 1013.1
20260901080238 62 121 0.0 0.0 0.00 0.00 0.00 96 1013.1
20260901075732 62 122 0.0 0.0 0.00 0.00 0.00 96 1013.1
20260901075456 62 122 0.0 0.0 0.00 0.00 0.00 95 1013.2
20260901074719 62 122 0.0 0.0 0.00 0.00 0.00 95 1013.2
20260901074214 62 121 0.0 0.0 0.00 0.00 0.00 96 1013.4
20260901073940 63 121 0.0 0.0 0.00 0.00 0.00 96 1013.4
20260901073433 63 121 0.0 0.0 0.00 0.00 0.00 96 1013.4
20260901072656 62 121 0.0 0.0 0.00 0.00 0.00 96 1013.4
20260901072150 62 121 0.0 0.0 0.00 0.00 0.00 95 1013.5
20260901071916 62 122 0.0 0.0 0.00 0.00 0.00 95 1013.6
20260901071138 62 121 0.0 0.0 0.00 0.00 0.00 95 1013.7
20260901070632 63 122 0.0 0.0 0.00 0.00 0.00 96 1013.8
20260901070126 63 122 0.0 0.0 0.00 0.00 0.00 96 1013.7
20260901065620 62 121 0.0 0.0 0.00 0.00 0.00 95 1013.8
20260901065114 62 122 0.0 0.0 0.00 0.00 0.00 94 1013.8
20260901064838 62 121 0.0 0.0 0.00 0.00 0.00 94 1013.8
20260901064102 62 122 0.0 0.0 0.00 0.00 0.00 94 1013.9
20260901063556 63 122 0.0 0.0 0.00 0.00 0.00 95 1014.0
20260901063050 64 122 0.0 0.0 0.00 0.00 0.00 95 1014.0
20260901062544 63 122 0.0 0.0 0.00 0.00 0.00 96 1013.9
20260901062038 63 122 0.0 0.0 0.00 0.00 0.00 95 1013.7
20260901061532 63 121 0.0 0.0 0.00 0.00 0.00 95 1013.7
20260901061026 63 121 0.0 0.0 0.00 0.00 0.00 95 1013.7
20260901060520 63 122 0.0 0.0 0.00 0.00 0.00 95 1013.8
20260901060014 63 122 0.0 0.0 0.00 0.00 0.00 95 1013.7
20260901055508 63 122 0.0 0.0 0.00 0.00 0.00 94 1013.7
20260901055001 63 122 0.0 0.0 0.00 0.00 0.00 94 1013.7
20260901054456 63 121 0.0 0.0 0.00 0.00 0.00 94 1013.7
20260901053950 63 121 0.0 0.0 0.00 0.00 0.00 94 1013.6
20260901053450 63 122 0.0 0.0 0.00 0.00 0.00 94 1013.6
20260901053217 64 122 0.0 0.0 0.00 0.00 0.00 94 1013.6
20260901052446 64 121 0.0 0.0 0.00 0.00 0.00 93 1013.6
20260901051949 64 121 0.0 0.0 0.00 0.00 0.00 93 1013.6
20260901051446 64 121 0.0 0.0 0.00 0.00 0.00 93 1013.5
20260901050944 64 122 0.0 0.0 0.00 0.00 0.00 93 1013.4
20260901050441 65 121 0.0 0.0 0.00 0.00 0.00 93 1013.5
20260901045940 65 121 0.0 0.0 0.00 0.00 0.00 93 1013.4
20260901045440 65 121 0.0 0.0 0.00 0.00 0.00 93 1013.4
20260901044939 65 122 0.0 0.0 0.00 0.00 0.00 92 1013.4
20260901044439 65 122 0.0 0.0 0.00 0.00 0.00 92 1013.1
20260901043940 65 121 0.0 0.0 0.00 0.00 0.00 92 1013.1
20260901043441 66 121 0.0 0.0 0.00 0.00 0.00 91 1013.1
20260901043209 66 121 0.0 0.0 0.00 0.00 0.00 91 1013.0
20260901042435 66 121 0.0 0.0 0.00 0.00 0.00 91 1013.0
20260901041935 67 121 0.0 0.0 0.00 0.00 0.00 90 1013.0
20260901041707 67 121 0.0 0.0 0.00 0.00 0.00 90 1012.8
20260901040936 67 121 0.0 0.0 0.00 0.00 0.00 90 1012.9
20260901040436 67 122 0.0 0.0 0.00 0.00 0.00 90 1013.0
20260901035936 67 121 0.0 0.0 0.00 0.00 0.00 90 1013.0
20260901035706 67 121 0.0 0.0 0.00 0.00 0.00 90 1012.9
20260901034937 68 121 0.0 0.0 0.00 0.00 0.00 89 1013.0
20260901034433 68 122 0.0 0.0 0.00 0.00 0.00 89 1013.0
20260901033933 68 121 0.0 0.0 0.00 0.00 0.00 89 1013.1
20260901033438 69 121 0.0 0.0 0.00 0.00 0.00 88 1013.0
20260901033432 68 121 0.0 0.0 0.00 0.00 0.00 89 1013.1
20260901032433 69 122 0.0 0.0 0.00 0.00 0.00 88 1013.0
20260901031931 69 121 0.0 0.0 0.00 0.00 0.00 89 1012.9
20260901031433 69 121 0.0 0.0 0.00 0.00 0.00 89 1012.8
20260901030933 69 122 0.0 0.0 0.00 0.00 0.00 89 1012.9
20260901030708 68 121 0.0 0.0 0.00 0.00 0.00 89 1012.8
20260901025928 68 122 0.0 0.0 0.00 0.00 0.00 87 1012.8
20260901025429 69 122 0.0 0.0 0.00 0.00 0.00 87 1012.8
20260901024929 69 122 0.0 0.0 0.00 0.00 0.00 86 1012.8
20260901024427 69 121 0.0 0.0 0.00 0.00 0.00 85 1012.8
20260901023929 70 121 0.0 0.0 0.00 0.00 0.00 84 1012.7
20260901023426 70 122 0.0 0.0 0.00 0.00 0.00 84 1012.7
20260901022926 70 121 0.0 0.0 0.00 0.00 0.00 84 1012.6
20260901022429 71 121 0.0 0.0 0.00 0.00 0.00 84 1012.5
20260901021926 71 121 0.0 0.0 0.00 0.00 0.00 82 1012.6
20260901021425 72 121 0.0 0.0 0.00 0.00 0.00 81 1012.5
20260901020921 72 121 0.0 0.0 0.00 0.00 0.00 80 1012.5
20260901020424 73 121 0.0 0.0 0.00 0.00 0.00 79 1012.5
20260901015916 73 122 0.0 0.0 0.00 0.00 0.00 79 1012.5
20260901015418 73 122 0.0 0.0 0.00 0.00 0.00 79 1012.4
20260901014911 73 121 0.0 0.0 0.00 0.00 0.00 79 1012.4
20260901014410 74 122 0.0 0.0 0.00 0.00 0.00 79 1012.3
20260901013911 74 122 0.0 0.0 0.00 0.00 0.00 78 1012.2
20260901013646 74 121 0.0 0.0 0.00 0.00 0.00 77 1012.2
20260901013407 74 121 0.0 0.0 0.00 0.00 0.00 78 1012.2
20260901012407 75 121 0.0 0.0 0.00 0.00 0.00 76 1012.1
20260901011907 75 121 0.0 0.0 0.00 0.00 0.00 76 1012.1
20260901011403 76 121 0.0 0.0 0.00 0.00 0.00 75 1012.0
20260901011135 76 121 0.0 0.0 0.00 0.00 0.00 74 1012.0
20260901010404 77 122 0.0 0.0 0.00 0.00 0.00 73 1012.0
20260901005903 77 121 0.0 0.0 0.00 0.00 0.00 72 1012.0
20260901005405 78 122 0.0 0.0 0.00 0.00 0.00 71 1012.0
20260901004902 78 121 0.0 0.0 0.00 0.00 0.00 71 1012.0
20260901004359 79 121 0.0 0.0 0.00 0.00 0.00 70 1011.9
20260901004126 80 121 0.0 0.0 0.00 0.00 0.00 67 1011.9
20260901004000 79 121 0.0 0.0 0.00 0.00 0.00 68 1011.8